Location: Newark
(45.6000°N, 10.5333°E)
Time: 13:07:32
(UTC+00:00)

ISS - Visible Passes

Search period start: 21 October 2019 00:00
Search period end: 31 October 2019 00:00
Orbit: 411 x 421 km, 51.6° (Epoch: 21 October)

Date Brightness Start Highest point End Pass type
(mag) Time Alt. Az. Time Alt. Az. Time Alt. Az.
24 Oct -1.2 04:48:39 10° S 04:51:19 22° SE 04:53:58 10° E visible
25 Oct -0.8 04:01:10 10° SSE 04:02:54 14° SE 04:04:39 10° ESE visible
26 Oct -3.0 04:47:19 10° SW 04:50:36 52° SE 04:53:53 10° ENE visible
27 Oct -2.2 04:00:46 23° S 04:02:04 32° SE 04:05:07 10° ENE visible
28 Oct -1.0 03:14:37 18° ESE 03:14:37 18° ESE 03:16:09 10° E visible
28 Oct -3.8 04:47:32 17° WSW 04:50:02 70° NNW 04:53:24 10° ENE visible
29 Oct -3.8 04:01:15 75° S 04:01:23 78° SSE 04:04:46 10° ENE visible
30 Oct -1.0 03:14:49 20° ENE 03:14:49 20° ENE 03:16:03 10° ENE visible
30 Oct -3.1 04:47:44 21° WNW 04:49:35 39° NNW 04:52:47 10° NE visible
